User: anonymous   Login
Location: Unspecified
(0.0000°N, 0.0000°E)
Time: 01:46:05
(UTC+00:00)
Language:

GONETS M 09 (M19) - Orbit

View from above orbital plane
View from above orbital plane
View from above satellite
View from above satellite

Ground track
Ground track

The orbit data is extracted from the following two-line orbital elements,

1 40062U 14036B   23088.46254699  .00000062  00000-0  37760-3 0  9996
2 40062  82.5121 317.9129 0022126 199.5935 160.4294 12.42893883396393
Epoch (UTC): 29 March 2023 11:06:04
Eccentricity: 0.0022126
inclination: 82.5121°
perigee height: 1477 km
apogee height: 1512 km
right ascension of ascending node: 317.9129°
argument of perigee: 199.5935°
revolutions per day: 12.42893883
mean anomaly at epoch: 160.4294°
orbit number at epoch: 39639

The dashed part of the orbit path shows where the satellite is in the earth's shadow,  

DLR